, NM

(GMT )
Holloman AFB

Weather History for KHMN - May, 2014

Change the Weather History Date:

Thursday, May 15, 2014

  Actual Average Record
Temperature  
Mean Temperature 59 °F -  
Max Temperature 77 °F 85 °F 100 °F (2000)
Min Temperature 41 °F 54 °F 41 °F (2014)
Degree Days  
Heating Degree Days 6    
Growing Degree Days 9 (Base 50)    
Moisture  
Dew Point 10 °F    
Average Humidity 14    
Maximum Humidity 26    
Minimum Humidity 7    
Precipitation  
Precipitation 0.00 in - - ()
Sea Level Pressure  
Sea Level Pressure 30.12 in    
Wind  
Wind Speed 6 mph (SE)    
Max Wind Speed 10 mph    
Max Gust Speed -    
Visibility 10 miles    
Events      
Averages and records for this station are not official NWS values.
T = Trace of Precipitation, MM = Missing Value Source: NWS Daily Summary

Daily Weather History Graph

Daily Weather History Graph

Search for Another Location

Airport or City:

Trip Planner

Search our weather history database for the weather conditions in past years. The results will help you decide how hot, cold, wet, or windy it might be!

Date:

Astronomy

May. 15, 2014 Rise Set
Actual Time 6:05 AM MDT 7:56 PM MDT
Civil Twilight 5:38 AM MDT 8:23 PM MDT
Nautical Twilight 5:05 AM MDT 8:56 PM MDT
Astronomical Twilight 4:30 AM MDT 9:31 PM MDT
Moon 9:07 PM MDT (5/15) 6:53 AM MDT (5/15)
Length of Visible Light 14h 45m
Length of Day
13h 51m
Full, 99% of the Moon is Illuminated
May 15
Full
May 21
Last Quarter
May 28
New
Jun 5
First Quarter
Jun 12
Full

Hourly Weather History & Observations

Time (MDT) Temp. Windchill Dew Point Humidity Pressure Visibility Wind Dir Wind Speed Gust Speed Precip Events Conditions
12:58 AM 52.2 °F - 11.1 °F 19% 30.22 in 10.0 mi SSE 5.8 mph - N/A   Clear
1:58 AM 48.9 °F - 11.5 °F 22% 30.22 in 10.0 mi SW 9.2 mph - N/A   Clear
2:58 AM 49.1 °F - 12.0 °F 23% 30.19 in 10.0 mi South 8.1 mph - N/A   Clear
3:58 AM 50.7 °F - 10.8 °F 20% 30.20 in 10.0 mi South 8.1 mph - N/A   Clear
4:58 AM 46.6 °F - 10.4 °F 23% 30.21 in 10.0 mi East 6.9 mph - N/A   Clear
5:58 AM 41.0 °F 36.4 °F 8.1 °F 26% 30.22 in 10.0 mi East 6.9 mph - N/A   Clear
6:58 AM 41.5 °F 39.6 °F 7.5 °F 25% 30.22 in 10.0 mi ENE 3.5 mph - N/A   Clear
7:58 AM 53.6 °F - 10.6 °F 18% 30.21 in 10.0 mi South 3.5 mph - N/A   Clear
8:58 AM 59.4 °F - 11.8 °F 15% 30.21 in 10.0 mi South 4.6 mph - N/A   Clear
9:58 AM 64.4 °F - 10.2 °F 12% 30.21 in 10.0 mi South 6.9 mph - N/A   Clear
10:58 AM 66.9 °F - 10.9 °F 11% 30.20 in 10.0 mi Variable 6.9 mph - N/A   Clear
11:58 AM 68.7 °F - 10.2 °F 10% 30.17 in 10.0 mi Variable 2.3 mph - N/A   Partly Cloudy
1:58 PM 73.6 °F - 9.0 °F 8% 30.12 in 10.0 mi Variable 2.3 mph - N/A   Partly Cloudy
2:58 PM 75.2 °F - 9.7 °F 8% 30.08 in 10.0 mi NW 10.4 mph - N/A   Clear
3:58 PM 75.6 °F - 7.5 °F 7% 30.05 in 10.0 mi Variable 1.2 mph - N/A   Clear
4:58 PM 77.2 °F - 8.8 °F 7% 30.03 in 10.0 mi NNE 2.3 mph - N/A   Clear
5:58 PM 77.0 °F - 8.8 °F 7% 30.02 in 10.0 mi NNE 3.5 mph - N/A   Clear
6:58 PM 76.5 °F - 8.2 °F 7% 30.01 in 10.0 mi South 5.8 mph - N/A   Clear
7:58 PM 73.0 °F - 11.3 °F 9% 30.00 in 10.0 mi SE 5.8 mph - N/A   Clear
8:58 PM 68.9 °F - 12.6 °F 11% 30.01 in 10.0 mi SSE 5.8 mph - N/A   Clear
9:58 PM 65.8 °F - 12.2 °F 12% 30.02 in 10.0 mi ESE 6.9 mph - N/A   Clear
10:58 PM 61.2 °F - 11.8 °F 14% 30.02 in 10.0 mi ESE 5.8 mph - N/A   Clear
11:58 PM 57.7 °F - 12.0 °F 16% 30.02 in 10.0 mi ESE 5.8 mph - N/A   Clear